GFSSW_250_rhum_333.txt.gz
RH
24 29 31 37 41 32 29 28 22 19 22 28 26 19 18 20 16 12 10 26 40 55 57 44 55 68 79 42 42 40 58 29 14 20 26 19 18 13 8 10 27 79 96 93 91
28 25 26 27 25 22 22 24 22 19 17 26 24 17 15 17 16 12 11 11 37 77 62 48 46 52 64 51 48 49 45 50 20 18 31 46 23 23 22 15 12 11 15 35 68
26 26 26 25 24 24 23 20 20 22 21 20 20 18 15 15 15 13 13 12 36 97 63 47 43 60 42 28 32 45 51 53 54 49 51 49 35 23 20 22 18 12 10 9 11
24 23 25 26 25 25 25 28 29 27 24 22 20 17 17 16 15 14 14 15 14 96 68 52 57 58 91 48 36 54 63 66 80 76 67 66 84 75 68 30 17 18 14 12 11
36 35 27 24 25 27 27 26 25 24 24 23 21 20 18 19 17 14 16 17 16 17 90 87 74 73 81 70 38 47 62 81 74 77 68 69 74 96 92 94 50 21 19 19 16
37 43 45 42 35 32 28 26 27 28 22 21 20 18 18 18 17 15 15 17 17 16 30 98 88 80 81 83 46 38 63 90 89 74 82 84 78 78 52 54 72 28 28 27 24
40 46 39 39 41 41 45 42 39 34 33 22 22 20 18 16 17 17 15 16 18 19 16 21 56 65 65 78 49 41 66 100 100 100 100 100 83 79 59 43 30 30 22 28 32
91 98 85 64 54 64 67 61 60 47 40 37 33 22 24 18 16 17 18 17 17 18 18 17 27 25 70 62 55 38 54 99 97 100 99 100 99 93 71 60 46 48 40 26 31
41 55 64 76 74 71 51 37 43 63 64 52 41 35 32 22 17 18 18 20 18 15 16 16 17 20 25 48 89 38 41 72 53 52 69 50 82 100 87 67 58 27 43 27 29
16 19 26 30 38 36 21 31 25 19 23 30 48 46 43 30 20 18 18 20 18 17 15 16 19 18 19 26 44 61 59 52 40 36 35 50 38 62 100 55 46 16 48 28 30
13 12 11 12 14 17 17 16 15 14 13 14 15 17 27 35 22 24 21 22 22 19 19 19 17 16 16 18 22 36 61 54 35 46 42 68 49 62 80 63 44 12 17 31 23
18 16 15 15 15 15 14 13 13 13 13 14 13 12 12 13 13 16 27 24 23 22 20 20 19 19 18 17 22 23 54 50 36 47 62 46 40 34 63 57 47 10 14 20 23
24 22 20 20 22 23 22 21 20 20 18 17 16 16 14 12 9 9 15 23 23 26 19 21 23 20 22 19 19 22 30 53 30 32 68 49 38 74 82 50 61 17 16 26 22
26 28 26 27 25 23 24 24 24 19 17 18 16 16 12 10 11 10 9 15 24 24 19 18 27 24 22 21 19 21 21 44 26 17 31 44 51 100 73 61 54 12 18 20 37
22 24 25 24 23 22 26 23 21 20 20 21 16 15 12 11 9 11 11 9 18 23 24 19 21 24 22 29 23 21 18 24 26 21 18 47 62 96 78 62 45 13 10 38 72
25 25 24 24 24 22 22 22 20 22 23 22 19 16 13 13 11 11 12 12 11 19 27 23 27 25 28 33 30 24 20 19 24 23 16 65 63 83 92 60 54 12 7 15 45
21 20 21 22 23 23 22 21 22 22 23 23 21 19 17 17 16 14 14 15 13 13 25 27 25 25 25 29 34 27 21 19 21 19 16 59 60 72 71 71 79 19 7 8 18
31 28 23 20 19 19 19 19 19 20 21 21 24 24 21 22 22 20 17 16 15 12 15 26 25 26 23 22 30 25 20 22 22 18 24 68 63 58 64 55 71 23 7 7 16
31 29 31 33 31 28 27 26 23 19 20 21 26 26 24 23 23 23 20 18 15 11 9 15 23 24 22 21 26 28 21 26 24 20 31 63 77 52 76 58 38 19 7 7 11
30 31 30 29 28 28 29 32 29 27 23 24 26 27 25 26 26 24 21 20 17 14 8 10 12 15 21 20 22 26 21 26 26 22 26 78 79 62 80 58 49 30 7 6 8
32 33 33 33 32 32 29 30 27 32 32 28 30 27 27 26 31 26 24 21 18 16 12 10 11 13 15 16 20 21 21 24 27 24 20 70 74 92 74 72 57 43 15 6 8
43 34 34 41 37 32 30 36 32 31 32 36 36 28 28 27 26 30 31 25 20 17 16 13 11 10 12 12 13 13 16 25 26 24 20 39 71 90 90 82 64 43 25 6 6
32 38 36 34 29 30 44 42 38 35 33 32 34 35 39 33 29 25 29 31 24 19 18 15 16 12 10 10 10 11 16 25 27 25 22 26 67 81 77 83 58 43 29 7 6
35 33 30 27 29 28 28 42 46 41 36 32 30 28 29 36 42 35 26 26 26 22 17 17 17 16 12 10 9 12 16 24 27 23 23 25 60 79 71 71 55 45 32 10 6
37 36 38 38 38 35 31 30 29 34 44 46 41 38 29 26 29 38 38 31 25 25 21 18 20 17 16 12 9 10 12 22 26 23 22 30 89 96 77 66 40 42 37 32 7
39 40 44 42 43 46 37 36 35 32 34 46 43 43 44 40 30 26 29 34 30 23 23 22 21 22 17 15 10 10 11 19 25 23 20 22 76 100 68 78 49 52 39 40 8
39 39 42 52 49 48 46 46 39 38 35 35 38 49 42 41 39 38 29 26 29 30 20 26 23 22 22 16 13 11 15 18 24 22 20 23 75 100 75 63 48 49 45 40 7

GFSSW_250_rhum_336.txt.gz
RH
20 19 24 27 33 32 29 29 28 22 21 20 17 21 19 15 15 14 11 12 32 65 55 39 55 56 42 44 29 21 24 18 17 14 11 14 14 11 14 32 48 92 94 91 71
25 23 20 19 22 24 22 22 23 18 18 19 18 19 20 15 16 14 13 12 30 61 73 52 43 57 39 34 43 42 36 25 16 16 14 13 15 18 17 12 12 23 80 100 88
31 30 28 26 25 24 24 22 19 16 17 19 21 21 20 16 14 15 14 14 50 85 84 74 44 41 44 40 50 55 63 62 44 46 44 44 48 38 21 22 21 14 14 40 85
26 25 26 26 26 25 25 23 20 18 18 20 23 25 23 18 14 16 16 16 16 93 92 73 56 39 44 45 46 62 64 61 52 60 54 57 52 44 38 29 19 21 17 12 11
37 30 25 24 24 24 24 26 25 22 22 21 23 25 24 21 16 17 18 18 18 17 99 74 68 64 56 60 39 43 59 63 74 66 68 76 86 58 50 42 31 16 20 20 12
40 38 39 36 33 31 28 24 24 23 23 23 21 22 21 20 19 18 18 20 20 18 17 86 84 75 63 51 50 54 70 81 80 96 65 79 86 71 56 59 54 24 16 16 19
38 40 36 35 40 42 36 33 33 31 24 23 23 22 19 18 19 18 20 21 22 20 18 23 70 73 66 78 50 60 73 92 89 61 59 58 86 87 81 60 52 36 25 16 14
30 30 30 30 36 37 40 35 37 40 44 41 39 30 26 20 19 20 19 22 22 22 18 18 22 36 40 51 58 95 67 98 89 56 40 39 48 59 94 53 54 31 17 18 18
27 32 34 42 47 57 84 76 48 38 37 35 39 37 40 32 23 20 20 20 20 21 20 19 21 27 30 29 33 94 75 68 87 60 37 34 60 56 77 67 51 49 13 19 19
17 15 18 22 21 20 24 37 46 47 45 37 23 21 30 40 30 24 21 20 19 19 21 19 20 24 24 28 27 28 46 67 57 58 44 39 58 48 61 59 56 43 19 17 19
13 13 12 14 13 14 15 15 22 25 19 14 12 15 16 15 19 29 31 21 21 18 18 20 25 21 19 23 25 26 27 49 54 47 47 49 64 60 70 62 60 36 13 18 19
17 16 15 14 14 12 12 10 10 12 16 15 15 13 12 13 11 11 20 26 21 19 19 18 22 26 21 21 24 25 23 30 47 42 44 57 48 80 71 61 50 27 10 17 20
21 20 21 21 20 18 15 14 14 14 14 14 13 12 11 11 10 9 10 15 22 20 19 20 21 25 26 26 22 25 22 22 52 33 20 41 56 74 52 64 55 40 9 15 16
22 22 22 24 24 22 22 22 24 23 22 21 21 20 18 14 13 13 9 8 11 19 16 20 23 26 28 26 26 26 26 22 24 30 42 21 56 60 63 80 65 45 8 17 20
22 22 22 22 26 26 27 27 25 23 24 27 24 20 17 16 14 13 11 11 8 9 16 17 22 25 26 28 26 29 29 25 22 23 26 21 52 71 52 91 67 49 8 17 20
19 19 23 24 23 27 26 25 24 25 27 26 23 21 18 16 15 13 10 9 10 8 8 16 20 26 31 32 29 28 31 26 24 21 30 36 42 72 72 75 71 41 9 8 19
20 19 19 21 24 25 25 24 24 23 25 24 22 20 19 18 17 15 11 10 10 10 8 10 19 22 25 30 27 30 36 31 30 27 54 47 43 72 82 69 66 39 19 8 14
26 27 25 21 20 20 22 23 24 25 22 22 20 20 19 18 19 16 14 13 12 10 10 8 14 21 25 26 26 28 34 34 28 57 57 24 29 64 74 77 59 49 36 6 10
25 25 26 28 30 32 28 23 21 20 21 20 19 18 18 20 20 18 16 16 13 12 10 9 8 15 22 25 27 26 28 33 30 26 26 20 31 71 70 75 61 57 50 7 8
25 25 27 28 29 29 32 35 32 29 26 23 21 18 17 22 25 21 18 20 19 16 14 13 9 9 16 21 26 28 26 28 30 26 38 28 33 89 75 72 64 61 52 8 8
32 30 28 28 28 29 32 32 28 28 29 30 30 23 20 26 28 25 24 20 19 20 18 16 14 9 10 19 24 25 24 23 26 27 26 54 49 86 89 83 70 60 52 14 7
35 35 39 31 32 33 33 36 31 32 30 28 28 30 27 25 27 28 26 24 22 20 18 18 17 14 10 10 18 22 23 24 26 29 21 22 23 81 96 91 68 50 45 15 6
32 38 36 33 32 34 38 42 39 32 30 31 29 27 29 32 28 28 27 25 24 24 22 18 17 16 12 9 10 16 20 21 24 25 22 23 26 55 99 100 68 37 30 13 6
33 31 34 32 32 32 33 33 37 41 47 38 35 32 28 26 30 33 27 26 23 26 25 20 20 18 15 11 9 10 17 18 21 19 19 24 22 20 80 98 76 39 31 31 15
36 33 35 34 35 32 29 31 31 33 37 47 38 36 31 28 28 27 30 28 24 24 26 26 21 21 18 14 11 10 11 15 16 16 18 26 23 19 71 86 74 40 38 33 33
38 39 35 35 34 33 35 37 37 38 33 29 35 40 41 37 32 30 26 25 30 23 23 28 26 22 20 17 15 12 11 10 12 13 19 26 25 21 63 64 68 34 30 26 36
37 37 37 40 39 38 34 37 38 36 40 41 36 32 31 39 39 36 33 30 25 26 26 24 31 28 22 18 17 18 14 12 11 12 18 25 24 20 42 62 84 31 28 21 36

GFSSW_250_rhum_339.txt.gz
RH
29 33 32 34 34 36 38 34 33 32 27 23 17 19 16 19 14 13 12 11 18 50 48 56 48 43 41 43 36 25 19 14 16 25 18 22 21 55 92 82 78 97 90 92 81
20 20 24 25 17 22 22 26 25 26 26 22 17 16 16 17 16 14 13 12 15 46 65 53 48 47 37 42 40 56 32 26 26 22 19 14 14 18 22 59 76 86 80 98 89
25 23 20 18 18 18 18 21 24 23 22 22 18 18 16 16 16 15 14 14 21 62 40 66 65 51 40 45 50 63 48 36 35 49 42 37 42 37 23 12 11 14 29 58 98
28 29 29 28 28 25 23 25 27 27 26 25 23 22 20 19 17 19 16 16 16 21 100 88 56 53 48 64 50 56 59 53 54 59 57 62 43 44 48 44 32 16 12 10 22
34 29 24 22 23 25 25 24 25 25 22 24 27 26 25 26 22 21 20 19 18 17 85 86 58 50 72 60 40 57 76 99 86 71 58 92 71 41 44 43 44 32 18 14 10
38 38 40 39 34 28 24 24 23 24 22 21 24 26 25 28 25 23 23 22 21 20 18 68 67 63 70 74 48 72 64 71 92 59 64 68 78 71 72 53 49 40 18 18 15
42 44 40 40 39 40 36 33 32 29 25 21 19 23 21 21 24 23 22 21 23 21 21 20 62 78 63 82 80 68 69 63 94 74 53 54 71 65 50 48 46 53 37 18 19
28 34 33 38 34 34 35 34 35 37 35 32 30 24 24 23 23 20 22 21 22 24 22 24 21 56 54 62 67 64 70 54 95 64 56 41 63 60 49 48 54 59 46 18 22
25 24 23 22 22 25 23 24 23 23 37 38 37 36 43 37 32 26 24 22 23 24 22 22 24 23 38 40 44 64 70 100 100 78 73 51 88 54 62 53 58 52 35 18 24
20 16 16 16 15 19 21 20 28 26 28 44 47 24 31 34 34 35 32 26 22 25 23 20 20 25 25 30 45 66 59 65 55 100 52 51 57 67 99 70 75 56 44 12 22
13 13 12 12 12 12 13 14 13 13 13 14 20 22 20 19 17 23 31 30 28 21 22 21 21 23 24 28 39 29 26 31 61 53 41 48 57 39 100 85 66 69 49 11 19
15 14 14 12 10 11 11 11 12 12 11 12 12 13 17 17 12 11 14 27 25 17 20 21 22 23 68 24 34 25 39 50 30 41 38 23 42 39 44 63 62 78 28 11 14
20 19 18 17 16 15 14 13 12 11 10 10 8 8 10 11 11 9 8 10 20 19 17 19 22 22 40 42 39 27 30 59 41 31 46 24 38 42 52 64 67 56 46 13 16
24 21 20 20 20 20 20 20 19 15 13 12 12 13 12 11 10 10 9 9 8 13 18 15 20 26 23 31 44 26 70 49 20 19 34 49 27 27 46 74 64 38 27 8 18
20 22 24 24 24 23 23 23 22 20 16 21 20 17 17 15 14 15 11 11 11 8 10 18 16 21 22 24 26 41 94 55 28 20 16 34 41 40 28 65 53 44 41 13 14
18 18 20 23 24 24 24 24 25 23 21 28 23 22 20 22 20 18 16 14 13 12 10 10 17 18 22 25 30 39 36 35 31 19 16 96 78 37 70 64 54 47 48 30 8
21 19 19 20 20 24 27 23 24 26 25 24 24 23 22 24 21 19 17 14 13 11 10 10 11 18 18 23 28 28 33 31 29 97 100 100 74 34 29 68 57 45 52 50 8
20 22 25 23 21 21 23 26 27 24 23 26 23 22 23 22 20 18 17 14 12 11 10 9 9 10 18 19 25 24 27 42 42 66 100 100 91 41 28 62 64 53 45 46 7
21 21 22 26 28 26 24 24 22 24 24 24 25 22 21 21 19 18 18 16 15 13 11 11 9 8 12 17 22 42 29 31 37 28 16 56 100 42 31 56 74 64 61 40 14
24 22 22 24 25 27 32 35 32 27 22 21 22 23 23 20 19 19 18 17 18 15 13 13 10 11 9 14 18 23 34 30 31 35 26 100 53 97 77 26 80 76 67 43 20
25 26 25 26 26 28 30 29 28 31 33 32 30 24 20 20 19 18 18 19 20 19 17 16 13 12 12 9 16 18 21 29 34 29 28 26 34 100 100 61 72 95 63 24 7
28 30 29 30 31 29 29 30 26 29 28 28 30 30 30 29 24 20 20 21 24 21 21 19 16 13 14 12 10 18 19 21 27 24 20 23 32 56 58 21 78 100 64 31 24
37 33 28 32 32 34 34 30 32 32 29 29 30 28 26 25 29 28 22 27 22 26 24 22 22 17 15 14 13 10 17 22 25 16 85 100 87 28 44 34 56 92 72 29 28
37 35 36 32 31 35 32 34 32 33 35 34 31 28 27 26 26 32 29 27 26 27 31 22 23 21 18 15 13 10 11 19 23 15 100 100 76 100 75 29 56 83 64 34 30
34 36 37 34 34 32 33 34 33 32 29 28 30 40 36 28 29 26 26 32 27 28 26 32 31 23 20 17 14 11 10 14 22 18 56 100 69 22 29 33 32 59 57 50 29
33 33 32 34 36 35 36 32 32 35 33 30 29 28 34 34 27 29 29 26 29 31 26 27 33 29 22 20 17 14 10 10 16 22 19 19 24 19 20 20 25 37 56 54 23
41 41 43 39 36 36 34 35 38 34 42 34 34 30 29 23 44 35 30 26 27 24 32 29 26 32 30 21 18 15 12 11 11 13 18 20 20 17 19 19 26 39 58 31 20

GFSSW_250_rhum_342.txt.gz
RH
26 29 28 28 32 32 33 34 30 27 22 28 28 22 18 16 13 11 9 10 14 34 52 64 43 30 21 19 84 100 52 14 17 15 13 10 14 27 43 79 27 13 14 25 39
26 27 30 32 36 37 35 33 32 27 20 21 20 21 18 16 12 12 10 10 10 37 42 45 43 36 33 28 44 78 22 26 33 37 32 26 18 16 15 21 79 80 70 27 13
20 22 31 28 25 23 25 22 17 17 16 16 18 18 20 18 14 12 12 11 11 17 41 47 36 98 100 84 85 64 39 60 47 55 45 34 24 22 26 26 16 19 86 94 62
26 26 23 22 22 21 21 21 20 22 22 22 23 22 20 22 16 15 14 13 13 23 46 35 28 97 100 91 45 98 42 40 50 60 78 59 47 40 40 28 25 15 12 27 88
28 24 23 24 26 25 25 26 24 24 26 27 26 24 26 25 21 18 18 16 16 16 22 82 55 27 99 54 40 71 51 60 29 36 36 40 40 41 31 34 28 33 29 15 10
45 43 38 35 32 28 24 22 22 22 23 25 24 25 26 24 22 20 20 19 18 18 17 61 77 50 55 60 67 100 51 36 30 32 35 37 70 62 46 37 30 29 34 29 15
33 36 39 40 40 43 41 41 40 27 22 21 22 24 24 21 22 25 22 20 20 20 18 17 26 82 65 71 53 71 63 52 43 70 65 51 79 95 75 47 39 29 28 35 16
32 30 38 41 40 40 42 40 38 38 36 31 28 24 22 23 24 23 23 22 20 19 16 97 15 21 75 65 63 64 62 68 97 100 100 72 91 92 58 70 86 49 40 38 23
32 30 29 29 34 34 38 40 38 34 35 33 32 35 32 29 22 22 22 21 20 18 18 84 31 15 89 59 34 73 80 91 100 100 100 70 42 40 94 100 100 98 49 37 20
16 16 17 17 19 18 18 21 22 24 26 26 26 24 32 34 36 35 32 25 19 21 20 21 22 15 89 79 25 56 100 92 100 100 100 59 42 37 63 99 100 86 38 47 11
13 12 14 15 16 17 13 12 14 15 16 16 14 16 19 23 28 31 36 31 21 22 21 21 22 20 16 27 34 33 56 73 98 100 55 44 41 33 45 81 92 33 50 47 18
11 10 9 10 12 12 12 11 11 12 11 12 12 11 17 15 23 21 23 28 25 20 18 19 23 22 19 31 48 32 32 42 59 75 38 39 36 35 72 32 44 42 80 94 76
18 16 15 13 13 12 12 10 9 10 10 11 11 10 10 11 10 12 16 13 15 18 19 16 20 18 19 21 68 72 47 30 91 100 40 27 37 35 36 53 30 40 44 97 100
17 18 19 18 18 17 17 15 13 11 11 10 10 10 10 9 9 8 10 10 10 11 14 19 15 93 96 17 100 100 46 23 43 50 20 23 24 60 50 44 66 32 41 42 49
22 19 18 18 20 20 19 19 18 17 16 17 18 12 10 11 8 9 7 8 9 8 7 11 19 20 34 17 66 87 35 32 38 47 16 24 100 100 97 100 98 72 39 74 100
19 18 19 19 18 19 20 21 22 21 18 22 24 18 16 14 13 11 12 10 9 9 8 9 10 18 17 19 19 42 30 65 100 64 32 100 100 100 97 97 95 28 36 47 81
18 19 20 18 17 18 19 19 22 24 19 27 25 22 21 22 20 20 18 17 14 12 13 11 9 8 17 17 19 21 31 94 100 38 90 100 89 90 92 55 22 14 32 41 58
20 19 19 20 20 19 19 19 21 20 23 20 26 24 24 23 23 24 23 22 19 16 14 14 13 12 12 16 20 20 19 100 50 20 75 100 94 100 99 89 23 14 14 35 62
20 20 20 20 22 23 24 22 19 18 21 27 22 25 24 25 25 24 26 24 18 16 15 13 13 12 12 20 16 18 23 20 31 20 80 95 100 100 99 97 60 63 56 28 23
22 22 23 23 23 23 26 25 24 22 19 21 23 24 24 24 23 25 24 23 19 17 15 13 13 11 11 12 10 17 33 25 31 60 38 74 74 100 100 100 100 89 84 32 27
25 26 25 24 22 23 24 25 28 28 29 27 22 20 20 21 24 24 23 22 21 19 16 14 14 15 11 13 10 9 19 49 78 28 24 29 86 100 90 80 96 94 50 20 29
30 31 27 30 28 28 27 25 28 26 28 28 29 31 25 21 21 21 22 21 19 17 16 17 15 15 13 13 10 9 19 25 48 26 20 14 58 100 100 99 75 95 37 13 34
32 32 32 33 35 30 30 32 28 26 27 28 29 26 29 31 28 26 24 19 21 18 17 17 21 18 16 16 12 11 10 18 22 32 21 21 12 93 97 52 28 52 26 13 41
40 39 38 35 34 35 33 34 30 26 29 28 29 30 29 27 27 28 28 30 29 18 21 20 24 20 18 18 13 11 11 12 20 22 26 23 22 100 100 100 92 100 82 17 37
35 31 39 33 36 37 34 34 36 33 29 28 29 34 29 27 27 27 23 27 36 26 28 21 25 26 23 20 17 14 12 11 16 21 23 36 97 100 100 88 99 74 18 23 32
34 34 37 28 30 35 32 36 34 33 36 29 28 28 26 24 22 24 24 25 31 36 30 29 29 25 27 22 20 18 14 11 9 18 24 36 75 100 100 100 86 24 18 14 26
40 38 39 39 41 39 34 30 28 32 33 38 36 35 30 20 23 32 38 31 31 28 37 38 29 27 27 26 21 19 18 15 13 11 22 34 100 100 99 72 65 17 14 13 18

GFSSW_250_rhum_345.txt.gz
RH
26 26 28 27 26 28 28 28 27 25 25 21 19 20 17 16 14 12 10 9 7 7 8 12 13 58 100 100 99 97 99 24 9 8 9 26 63 62 65 98 100 100 66 59 13
24 25 32 32 29 29 28 26 28 27 21 14 15 13 15 16 14 11 11 10 8 7 8 13 88 100 100 100 100 90 43 12 12 15 16 13 15 18 22 27 51 54 68 49 15
28 28 30 26 23 23 24 22 23 21 20 12 11 12 12 14 14 13 12 11 9 7 8 16 94 100 100 100 100 62 25 20 16 23 23 23 23 22 26 24 19 10 13 68 79
25 24 22 20 19 20 20 16 14 14 13 14 13 15 16 16 16 14 14 12 10 9 10 13 98 100 100 100 86 46 40 30 20 26 27 31 25 24 28 30 29 23 18 9 13
29 28 26 24 22 21 19 19 18 17 16 16 15 18 21 19 16 17 16 14 11 9 10 7 67 100 93 100 54 52 51 31 24 41 27 33 48 52 54 54 42 29 27 24 13
41 38 33 31 28 27 26 26 26 25 22 19 20 23 23 24 23 20 18 16 14 11 9 20 12 68 100 86 51 99 62 40 32 34 38 46 52 69 66 80 46 75 64 39 23
42 42 42 48 49 43 38 38 28 21 22 23 21 21 21 24 26 26 21 19 17 13 11 9 43 88 43 60 95 62 50 40 37 30 62 98 75 52 74 46 68 70 86 55 25
39 41 39 35 39 44 41 43 42 39 30 26 24 22 20 24 23 23 20 19 21 16 13 13 24 53 40 90 94 50 74 46 42 69 100 89 67 38 35 32 60 89 67 45 51
26 25 25 27 30 32 36 38 40 40 36 35 33 32 28 25 22 22 22 22 23 20 16 17 44 68 30 100 95 45 66 60 58 100 100 96 59 44 31 45 52 52 90 89 93
25 22 24 22 24 26 26 27 31 31 32 33 34 31 28 28 30 26 21 20 20 24 19 20 96 100 47 41 79 58 70 77 97 100 100 87 59 56 40 46 32 44 33 100 98
16 17 17 16 15 17 15 19 20 15 19 22 22 26 27 25 26 28 23 19 19 20 21 17 25 35 41 74 82 100 41 100 100 100 100 80 48 51 33 42 35 34 28 92 100
11 12 13 12 12 12 11 12 11 12 13 12 14 17 16 15 18 18 20 22 20 20 16 18 21 20 20 17 52 59 46 79 76 58 49 74 58 26 26 47 34 51 33 28 84
13 13 13 12 11 10 9 10 11 12 10 10 11 10 12 11 10 10 11 11 15 17 19 15 16 16 18 17 21 21 58 52 36 48 60 100 98 52 92 100 100 100 63 39 65
16 15 16 16 17 17 16 13 11 11 10 9 9 9 10 10 10 9 9 8 9 16 15 20 18 14 15 15 17 12 28 49 37 42 54 78 100 100 92 100 100 76 72 30 45
17 18 19 17 16 16 17 18 17 16 16 14 12 10 9 9 8 10 9 9 9 9 10 15 13 18 15 62 100 100 50 52 71 26 43 39 37 49 92 94 100 72 71 23 22
15 17 17 18 20 19 17 18 19 19 18 20 18 16 15 12 10 9 9 8 8 8 8 11 10 10 17 45 86 100 72 61 51 32 28 28 67 49 100 100 100 68 77 15 20
16 16 17 17 17 17 18 18 18 22 20 23 24 19 18 17 16 14 12 11 9 8 8 9 9 8 8 16 81 100 98 62 52 22 39 78 100 95 100 100 100 86 73 36 53
17 17 18 18 18 18 19 18 19 16 16 18 23 20 21 20 20 18 18 17 13 12 10 12 11 11 10 10 16 31 99 40 61 42 86 74 99 100 100 87 89 100 94 84 61
16 17 18 19 20 19 20 22 18 16 16 17 25 26 22 23 22 21 25 22 18 18 18 18 20 17 12 10 8 16 79 63 19 41 100 43 98 100 100 100 100 92 44 43 39
20 19 19 20 21 22 22 19 19 22 22 19 17 18 24 22 23 23 24 23 22 21 21 22 22 19 15 15 14 10 16 24 20 49 53 53 94 100 100 72 100 95 54 37 37
24 24 22 21 23 21 20 20 21 23 23 25 22 20 20 20 22 22 23 21 21 22 22 20 20 19 15 16 84 21 11 14 17 21 60 61 92 100 98 100 83 81 78 62 57
30 31 26 28 29 26 24 20 21 24 23 21 25 27 28 21 18 18 20 20 20 20 20 19 18 17 15 16 26 14 11 12 15 19 19 36 58 100 61 100 86 84 100 93 79
31 33 30 34 32 30 28 32 28 22 25 24 26 26 25 26 24 24 19 19 18 19 19 18 17 19 16 16 18 13 11 11 16 16 21 84 81 50 52 88 96 96 100 86 65
46 46 47 49 38 37 34 32 32 31 30 26 28 24 24 29 24 24 26 20 21 19 19 18 17 16 16 16 15 13 10 12 13 15 21 36 64 30 25 51 100 94 100 52 98
44 43 62 47 39 43 44 38 34 34 33 30 28 27 26 24 24 25 21 24 26 22 20 18 18 16 15 16 15 13 12 11 10 11 18 20 24 26 24 23 70 82 94 71 52
50 37 46 37 32 34 33 33 34 35 32 31 34 29 27 25 17 19 27 29 31 30 27 26 23 18 21 23 21 16 15 12 12 10 16 19 24 26 50 55 100 100 98 15 12
42 32 29 30 32 35 32 30 24 24 30 30 30 35 35 26 27 32 34 27 32 30 25 26 27 23 23 22 21 17 19 15 14 14 20 22 35 25 49 60 100 95 82 62 14